This is the latest recevied weather packets stored in our database for station/object N1ICS-1. If no packets are shown the sender has not sent any weather packets the latest 10 day(s).
| Time | Temp. | Humidity | Pressure | Rain* | Wind** | Luminosity | Snow |
|---|---|---|---|---|---|---|---|
| 1778140501 | 5° C | 82% | 1015.6 hPa | 0 mm | - | 0 W/m² | - |
| 1778140202 | 5° C | 83% | 1015.3 hPa | 0 mm | - | 0 W/m² | - |
| 1778139902 | 5.56° C | 82% | 1015.4 hPa | 0 mm | - | 0 W/m² | - |
| 1778139602 | 5.56° C | 81% | 1015.4 hPa | 0 mm | - | 0 W/m² | - |
| 1778139302 | 6.11° C | 80% | 1015.6 hPa | 0 mm | - | 0 W/m² | - |
| 1778139002 | 6.11° C | 81% | 1015.5 hPa | 0 mm | - | 0 W/m² | - |
| 1778138701 | 6.11° C | 80% | 1015.4 hPa | 0 mm | - | 0 W/m² | - |
| 1778138402 | 5.56° C | 81% | 1015.5 hPa | 0 mm | - | 0 W/m² | - |
| 1778138102 | 5.56° C | 84% | 1015.4 hPa | 0 mm | - | 0 W/m² | - |
| 1778137802 | 5° C | 86% | 1015.3 hPa | 0 mm | - | 0 W/m² | - |
| 1778137503 | 4.44° C | 87% | 1015.4 hPa | 0 mm | - | 0 W/m² | - |
| 1778137202 | 4.44° C | 88% | 1015.5 hPa | 0 mm | - | 0 W/m² | - |
| 1778136901 | 4.44° C | 89% | 1015.6 hPa | 0 mm | - | 0 W/m² | - |
| 1778136602 | 4.44° C | 90% | 1015.4 hPa | 0 mm | - | 0 W/m² | - |
| 1778136302 | 4.44° C | 90% | 1015.6 hPa | 0 mm | - | 0 W/m² | - |
| 1778136002 | 4.44° C | 90% | 1015.5 hPa | 0 mm | - | 0 W/m² | - |
| 1778135702 | 3.89° C | 91% | 1015.6 hPa | 0 mm | - | 0 W/m² | - |
| 1778135402 | 3.89° C | 92% | 1015.6 hPa | 0 mm | - | 0 W/m² | - |
| 1778135102 | 3.89° C | 93% | 1015.7 hPa | 0 mm | - | 0 W/m² | - |
| 1778134801 | 3.33° C | 92% | 1015.6 hPa | 0 mm | - | 0 W/m² | - |
| 1778134502 | 3.89° C | 93% | 1015.6 hPa | 0 mm | - | 0 W/m² | - |
| 1778134203 | 3.89° C | 93% | 1015.7 hPa | 0 mm | - | 0 W/m² | - |
| 1778133902 | 3.89° C | 92% | 1015.7 hPa | 0 mm | - | 0 W/m² | - |
| 1778133602 | 4.44° C | 91% | 1015.5 hPa | 0 mm | - | 0 W/m² | - |
| 1778133302 | 4.44° C | 90% | 1015.6 hPa | 0 mm | - | 0 W/m² | - |
* Rain latest hour (hover to see other rain measurements)
** Current wind speed in m/s (hover to see current wind gust speed)